GFSNW_850_spd_336.txt.gz
Wind_Speed
21 21 22 24 24 19 10 0 4 2 10 8 4 8 3 1 4 1 3 3 4 8 9 13 14 15 9 6 11 20 20 12 14 15 16 13 21 15 14 9 8 5 5 6
20 20 21 21 22 20 15 5 2 0 6 6 8 3 5 2 5 2 2 3 2 2 6 7 7 6 4 4 12 11 18 12 13 16 12 7 13 12 13 13 4 8 8 1
20 20 20 19 18 16 12 4 3 4 6 3 7 6 7 8 3 2 1 2 4 5 6 2 8 10 6 4 3 4 4 19 17 14 16 15 17 16 17 15 10 8 8 11
19 20 20 18 17 14 7 4 3 2 2 6 6 5 1 9 7 3 2 4 4 5 7 6 6 5 8 6 2 5 8 17 18 17 16 13 10 18 17 16 17 14 10 7
17 18 18 18 17 12 7 5 4 2 2 3 6 6 9 8 5 3 6 6 2 3 3 5 8 5 4 3 4 6 6 9 4 14 18 17 18 19 20 18 19 16 16 14
16 16 17 18 17 12 6 6 5 4 3 3 6 3 2 5 3 2 1 1 3 5 5 4 4 3 2 1 2 3 4 6 9 14 13 14 20 20 20 20 16 16 14 15
15 14 15 15 16 14 8 6 3 5 2 5 3 1 4 4 1 3 1 2 6 3 6 7 7 7 8 8 8 8 4 7 4 10 7 19 12 15 19 21 16 19 17 16
14 12 12 12 12 11 7 7 3 4 4 4 5 5 4 4 4 5 3 1 2 5 5 5 7 8 7 11 13 13 10 7 7 10 13 14 10 9 12 13 20 20 18 18
15 11 10 10 10 9 7 6 3 2 6 2 2 4 5 7 7 5 6 3 3 3 4 6 9 9 11 11 8 9 13 12 9 9 14 17 12 10 2 9 13 2 13 21
14 9 7 7 7 7 6 5 5 2 6 1 4 3 3 2 4 5 2 5 5 5 6 9 11 12 6 11 15 7 12 11 16 14 14 11 11 3 4 14 3 5 7 5
13 8 6 5 5 5 5 3 4 4 4 7 6 6 6 4 7 6 5 5 7 6 8 7 6 8 10 14 13 15 13 10 13 14 18 22 3 5 12 4 6 4 4 6
11 8 6 4 5 6 6 3 6 6 5 5 7 11 12 12 10 9 7 5 1 3 6 4 4 5 4 11 14 13 12 16 11 12 10 6 2 5 8 5 6 6 5 6
11 8 6 5 4 6 6 5 8 7 5 10 5 4 5 11 17 10 11 8 5 4 3 4 3 6 3 8 12 13 14 6 8 7 11 8 10 10 9 7 6 2 5 8
10 8 6 5 5 5 5 6 9 6 3 4 2 1 1 2 6 11 17 13 6 6 5 8 5 6 2 7 6 8 13 3 12 12 10 2 10 12 5 3 6 4 7 9
11 7 6 5 6 6 7 7 9 6 4 4 8 13 6 2 10 14 15 17 13 8 10 7 7 13 4 11 10 14 22 15 12 10 17 16 4 13 4 6 7 7 11 13
10 7 6 6 7 6 4 3 1 1 7 2 3 4 3 4 2 5 13 14 16 15 9 8 11 13 7 8 14 25 32 28 27 23 23 14 9 11 14 17 16 11 12 14
8 7 7 7 7 5 4 3 3 6 4 3 3 3 1 2 3 4 8 10 10 11 13 14 16 12 10 10 19 14 7 15 26 30 27 32 33 28 23 21 19 17 18 19
8 7 7 8 9 10 8 6 8 6 3 3 2 2 2 3 3 4 7 9 11 9 11 10 13 13 15 7 10 18 31 37 33 25 26 31 31 29 30 25 25 26 24 22
5 7 8 8 4 4 1 3 7 7 6 2 4 2 1 3 3 2 5 7 5 6 6 10 7 9 10 13 17 21 21 22 21 22 28 36 35 32 30 26 28 28 28 25
5 3 2 4 4 4 5 4 5 6 5 4 4 5 3 4 5 3 2 6 3 3 6 4 3 10 34 32 31 30 29 27 25 28 30 31 34 33 33 35 33 32 29 25
1 2 2 2 2 3 3 4 5 4 4 6 6 10 6 3 4 3 4 1 2 3 4 4 4 5 3 5 7 15 24 30 33 34 35 35 35 33 30 28 28 29 27 27
3 4 5 4 3 4 3 2 3 4 3 5 3 5 9 5 7 4 4 2 2 4 10 3 4 5 3 4 21 27 30 33 42 45 43 41 39 36 35 32 28 26 25 24
4 1 3 3 2 3 4 5 3 4 5 5 3 3 5 5 7 4 3 4 4 1 4 4 6 7 13 32 41 44 41 40 40 45 44 43 41 39 37 35 31 27 26 25
3 3 3 4 4 4 4 5 4 4 3 7 5 5 7 6 5 3 4 5 3 4 5 6 7 13 32 39 47 46 48 41 38 35 37 42 43 42 39 35 31 29 29 27
3 3 4 5 6 5 4 5 8 9 10 9 8 7 7 4 3 5 4 4 5 5 5 6 22 30 36 45 53 52 45 35 27 28 33 39 40 40 38 33 31 31 29 28
3 4 4 4 4 8 11 11 10 7 10 10 7 4 4 6 3 5 6 3 5 3 6 25 29 33 39 45 47 40 27 22 20 20 24 33 37 39 36 30 30 30 30 29
3 5 8 12 14 13 16 15 12 6 4 2 3 4 4 3 3 3 4 4 5 20 26 29 30 39 46 48 45 31 19 17 17 16 16 24 29 30 31 30 30 29 28 29

GFSNW_850_spd_339.txt.gz
Wind_Speed
18 18 19 21 22 16 7 7 6 6 10 12 16 12 17 5 8 10 8 7 12 11 14 18 22 19 18 17 19 24 20 17 16 20 18 18 21 18 20 13 10 7 16 4
17 17 18 19 20 19 13 7 6 5 12 8 11 14 7 8 10 11 7 9 7 4 12 9 15 18 10 9 13 11 17 16 16 18 18 17 13 20 21 18 6 6 8 9
18 17 16 16 17 15 10 6 4 9 15 20 13 13 11 14 9 12 6 10 4 10 12 9 7 9 6 5 13 3 5 17 17 16 17 16 18 20 22 19 10 9 24 7
17 17 17 16 14 12 6 5 2 5 4 13 13 16 9 13 10 13 8 10 12 13 13 15 14 13 9 8 7 5 11 18 19 19 21 17 13 16 18 22 14 17 2 7
17 16 15 15 13 8 3 7 6 6 16 8 9 11 13 15 12 2 13 14 14 8 14 11 11 11 10 11 12 16 18 17 18 20 21 19 16 17 16 21 16 15 16 11
16 15 14 14 13 9 4 7 6 7 6 11 10 11 13 15 12 6 11 10 10 12 1 6 9 10 11 4 9 15 17 15 17 16 15 15 19 20 17 17 17 15 17 13
15 14 12 12 11 9 6 7 6 9 10 4 9 5 6 7 6 11 5 7 10 6 7 9 11 11 11 10 11 13 9 15 13 11 16 21 13 15 19 19 19 18 18 11
14 13 11 9 8 7 6 7 4 7 8 7 7 8 10 8 8 11 10 5 6 8 9 9 13 13 15 16 15 15 13 12 11 13 13 15 9 16 15 15 15 21 17 15
12 11 10 8 6 5 7 6 5 7 8 2 6 7 8 10 10 11 11 8 8 8 7 11 18 16 17 18 17 20 17 15 12 9 16 19 13 16 12 7 14 15 19 18
13 11 9 8 5 4 5 5 8 4 11 5 4 6 7 3 9 9 3 5 9 12 9 12 15 17 18 19 21 12 15 15 17 15 14 13 11 13 4 12 2 7 4 6
12 10 8 7 5 3 4 3 6 6 8 10 5 7 9 8 8 8 5 3 11 8 11 13 12 13 16 18 18 18 16 17 16 15 19 22 18 11 11 5 5 4 5 7
10 11 8 7 6 4 2 3 8 8 8 11 9 11 11 11 11 12 9 12 9 4 7 10 8 13 9 18 16 21 15 14 13 17 14 21 13 19 6 5 7 7 6 7
8 10 8 6 5 5 3 5 7 8 8 15 11 5 4 8 16 11 13 10 10 7 10 12 7 8 7 11 14 16 19 23 6 11 13 1 7 5 5 6 5 4 5 7
8 8 7 5 5 5 3 5 5 5 6 7 5 2 1 2 5 13 17 18 10 11 10 13 8 6 9 11 13 13 12 9 17 11 19 9 12 7 6 3 4 3 3 4
7 9 6 5 5 4 4 5 6 5 2 6 10 13 9 9 10 11 11 14 16 15 13 9 9 14 13 10 12 13 15 14 9 9 18 14 10 11 13 4 2 2 3 3
8 7 6 5 4 3 3 2 3 3 2 4 3 4 7 6 6 9 11 15 16 17 16 12 17 20 11 8 13 19 27 25 20 19 24 24 13 7 9 10 11 11 11 9
8 6 6 6 5 3 7 1 5 4 3 1 5 4 4 3 5 6 8 11 12 14 17 18 17 16 12 12 18 23 19 14 19 24 26 31 26 23 16 20 19 18 16 17
8 6 5 5 6 6 4 7 10 6 3 2 3 4 3 2 1 2 5 8 11 7 15 12 13 17 19 11 13 17 24 31 27 25 24 26 29 31 31 31 30 29 27 23
3 3 5 6 4 4 3 3 7 8 4 2 5 3 1 4 2 1 3 3 3 7 6 14 9 10 11 10 14 16 16 17 18 19 21 23 30 33 29 28 29 31 32 29
3 2 3 4 4 5 3 2 3 4 4 4 4 7 3 1 4 4 2 2 2 2 4 6 5 15 32 31 25 22 22 21 20 22 24 24 28 27 27 31 32 31 32 29
1 3 1 1 4 2 3 4 5 5 4 6 7 9 5 4 1 1 3 1 2 3 3 4 4 7 15 20 23 13 8 13 20 26 30 32 32 31 30 30 31 31 33 33
2 1 2 2 3 4 4 3 3 4 3 7 3 2 4 4 4 3 3 2 2 5 9 3 4 4 14 15 15 7 17 25 33 33 34 34 39 37 35 34 34 33 30 29
2 2 3 3 3 3 4 5 3 3 5 5 4 3 4 4 6 3 2 4 5 1 3 4 7 8 7 15 16 27 31 37 31 34 36 37 41 41 43 43 39 36 34 31
2 3 3 4 4 4 5 2 2 2 5 4 5 4 6 5 4 2 4 4 4 4 4 6 6 3 7 20 29 36 41 36 36 36 37 37 40 42 40 42 41 38 38 35
3 3 3 5 3 2 3 4 7 5 4 4 5 7 7 4 3 4 4 4 5 6 6 3 7 16 24 33 38 43 41 40 38 34 35 35 36 39 39 40 42 40 38 36
2 4 4 5 5 6 5 6 7 5 6 7 6 4 3 5 3 5 6 4 5 4 7 20 28 31 30 40 45 47 45 44 42 34 36 34 34 35 35 34 39 40 40 39
3 5 7 8 10 9 12 9 10 7 3 2 3 4 6 3 4 4 4 5 10 20 29 31 31 33 46 49 48 50 50 43 37 38 34 33 34 31 33 37 39 40 39 39

GFSNW_850_spd_342.txt.gz
Wind_Speed
17 18 19 21 23 18 6 8 7 10 12 12 15 13 20 24 18 5 11 13 16 19 15 17 20 21 16 22 25 24 23 20 18 21 20 15 13 18 16 13 13 1 1 1
17 16 16 18 21 21 18 7 14 9 14 9 12 18 22 22 8 14 9 14 13 17 15 16 17 18 8 10 17 15 13 17 17 20 16 16 15 15 17 20 5 4 2 4
16 16 15 15 15 17 14 7 4 11 12 21 18 16 14 17 14 16 14 13 14 9 13 15 12 11 5 2 6 5 3 12 17 16 19 15 14 17 14 18 13 11 3 5
17 15 14 14 11 10 11 6 5 7 4 12 16 17 18 17 12 12 16 9 15 13 15 15 15 16 14 5 3 3 7 16 17 18 21 23 22 20 16 17 20 10 9 16
17 15 13 13 11 3 5 8 8 12 19 21 11 12 13 17 15 12 9 15 16 16 17 12 10 10 16 8 9 11 11 15 17 21 22 22 21 20 13 15 15 17 16 8
17 16 13 12 11 6 5 10 10 10 12 13 11 11 15 13 16 21 10 5 11 18 12 13 12 16 18 4 15 14 15 13 15 17 16 18 20 21 16 19 14 17 14 21
16 15 11 10 9 8 5 11 11 9 10 11 12 13 14 9 12 11 11 8 8 12 16 16 15 16 14 8 7 9 14 17 13 14 18 22 15 16 16 19 19 16 12 9
14 14 10 7 6 4 3 7 9 10 9 15 15 9 9 13 15 8 13 10 8 11 16 7 9 12 14 14 12 12 14 12 10 12 15 14 18 22 16 15 15 17 18 10
13 14 11 8 5 3 1 6 7 8 9 2 9 10 8 10 11 11 16 19 8 11 9 10 15 15 17 19 18 17 18 15 11 11 14 18 13 14 8 13 11 11 13 17
12 13 12 8 5 3 3 3 9 7 13 13 6 7 7 12 8 9 14 11 9 10 9 12 15 16 20 19 21 18 15 14 16 14 12 12 13 11 12 8 1 13 17 23
11 13 12 9 5 2 1 4 8 8 11 16 7 7 9 9 9 8 12 6 4 10 10 12 13 14 16 17 20 18 18 15 14 13 16 19 17 15 5 4 11 9 13 16
10 12 12 9 6 2 1 3 7 9 10 16 12 12 11 10 11 12 13 16 12 8 5 6 9 14 14 17 16 19 17 13 13 14 11 13 18 18 6 11 16 12 12 13
9 10 10 8 7 4 3 4 9 11 10 17 15 10 6 4 9 12 14 15 11 12 9 9 6 8 10 13 14 18 16 22 10 11 16 15 8 24 11 11 12 11 10 10
8 8 10 8 7 5 2 4 8 6 8 7 6 1 2 4 4 7 14 20 16 13 12 13 8 9 11 10 11 11 9 12 11 15 14 9 7 9 10 8 8 8 8 9
7 7 9 6 4 3 3 6 6 4 3 6 12 13 13 9 10 11 10 11 14 14 13 10 10 16 14 13 11 10 14 10 8 6 13 9 11 2 10 8 6 5 3 4
7 8 7 4 2 2 3 1 4 3 3 5 4 8 8 7 8 9 12 14 16 17 17 13 19 23 18 8 12 20 22 22 22 22 19 17 13 11 1 9 5 3 3 4
6 6 5 4 3 2 5 1 3 5 4 3 5 5 2 3 6 8 9 11 13 16 18 19 19 21 16 11 15 19 23 18 18 18 23 23 20 17 14 9 13 11 10 10
7 8 6 4 4 3 4 7 9 6 5 3 3 4 5 0 2 3 3 8 11 14 17 17 16 18 20 12 21 24 28 30 26 21 17 20 20 21 22 21 19 21 19 17
4 2 2 3 1 4 5 1 3 6 2 3 3 3 2 2 3 4 5 7 3 8 7 11 11 11 10 11 21 17 20 19 13 14 17 20 23 24 25 24 22 26 25 22
2 1 1 2 2 2 2 2 2 2 2 3 4 10 2 8 4 3 3 2 2 2 4 7 6 14 30 31 25 15 16 15 10 14 16 17 21 23 24 25 25 30 29 27
1 3 1 1 1 1 2 3 3 4 3 6 6 9 3 6 1 2 2 1 2 3 3 3 4 6 15 36 39 35 24 18 20 18 19 20 23 26 28 28 28 29 28 28
2 2 2 2 2 2 3 3 4 6 2 8 5 1 2 1 1 2 1 3 2 5 1 3 4 4 4 5 14 19 22 15 12 18 23 27 30 31 33 34 37 33 32 30
1 1 1 2 2 1 4 2 3 2 1 5 6 3 4 3 4 3 2 3 5 1 3 4 5 13 5 7 14 19 10 17 24 31 32 33 34 33 35 37 38 39 38 32
1 1 2 3 3 5 3 3 4 4 2 4 4 3 5 5 3 2 3 4 4 3 4 5 6 12 10 10 13 18 23 29 35 39 41 42 39 38 40 42 41 42 43 41
2 3 3 4 2 4 4 4 3 4 4 5 3 4 7 4 3 3 3 3 4 5 5 2 16 22 21 24 28 32 36 38 40 39 39 37 38 40 41 37 40 42 44 44
2 4 4 7 7 5 5 5 6 6 6 8 7 4 4 5 3 5 5 3 5 5 5 24 28 31 36 39 39 39 39 44 43 40 39 38 37 41 42 38 37 39 41 43
3 4 6 8 9 8 9 6 6 8 3 2 2 3 4 4 3 3 4 5 5 18 24 27 39 43 42 42 43 44 48 45 45 43 43 44 41 38 40 40 36 36 41 41

GFSNW_850_spd_345.txt.gz
Wind_Speed
17 17 19 23 26 20 12 3 3 17 17 8 7 8 6 10 24 33 2 5 8 10 14 7 15 19 13 28 21 15 15 8 10 14 13 14 8 9 7 5 6 2 3 5
17 17 17 18 22 24 23 10 8 13 17 4 8 10 17 22 20 20 5 6 7 10 11 8 8 5 19 18 16 17 10 11 9 11 8 6 7 12 8 6 3 6 6 6
17 17 15 15 16 18 19 6 3 11 17 17 12 11 12 14 28 17 7 8 13 11 8 8 8 13 7 7 6 6 7 3 8 9 9 4 5 7 10 8 2 4 3 4
18 17 14 14 13 13 13 3 3 9 2 2 9 12 13 17 16 10 10 3 9 9 7 9 9 11 2 5 4 2 3 3 4 7 7 9 11 10 10 9 8 7 9 9
19 18 15 14 13 9 4 7 7 13 17 15 11 11 5 11 15 10 5 7 11 8 6 7 7 11 7 4 1 1 3 2 2 6 9 12 15 12 11 6 7 9 14 4
18 18 15 13 12 9 3 11 17 7 11 8 8 8 9 10 11 12 13 16 5 6 10 16 21 21 19 12 6 7 3 4 3 5 7 10 11 7 7 9 7 16 8 7
17 17 14 11 10 9 9 11 13 6 6 8 9 17 23 6 7 8 14 18 6 11 16 18 18 19 19 13 11 3 6 4 3 4 3 8 7 10 11 9 9 5 20 19
15 17 14 10 8 5 3 8 11 6 6 14 13 15 14 16 16 8 13 13 7 13 12 6 6 3 4 5 10 7 3 2 2 5 5 8 7 11 13 7 10 9 21 20
12 16 13 9 7 4 1 10 7 6 7 1 19 12 16 5 7 8 15 17 12 6 3 2 3 3 3 4 3 5 6 5 4 4 1 5 8 11 14 9 2 19 15 21
13 13 14 10 7 4 1 8 10 6 9 4 13 8 7 9 10 5 8 17 7 10 2 2 3 5 6 4 4 7 4 4 4 4 4 5 7 9 11 7 2 18 21 20
13 11 13 11 7 4 2 4 10 8 6 16 10 9 10 14 12 4 16 10 9 4 1 3 3 4 5 5 6 6 5 5 4 3 3 7 13 9 4 5 22 24 22 27
13 10 12 11 6 3 2 2 7 9 6 13 14 11 10 10 8 9 9 9 14 11 4 6 4 4 4 4 7 6 6 5 5 8 6 8 29 3 14 21 25 21 21 24
10 9 11 10 6 3 4 4 9 13 8 16 11 4 7 5 2 5 4 7 10 11 13 6 2 4 3 3 4 6 6 10 2 2 8 3 15 12 22 24 23 19 19 19
9 8 8 10 6 3 0 3 6 8 6 5 10 6 1 3 1 4 6 12 14 12 12 8 2 3 7 5 6 4 3 7 8 4 15 13 16 14 17 20 18 17 17 17
9 7 8 8 4 3 3 3 4 4 4 6 13 12 6 7 5 5 7 9 9 11 7 3 4 5 5 7 4 5 9 4 3 2 13 7 16 18 5 14 15 12 11 11
8 6 8 5 2 4 7 2 1 2 6 4 4 8 4 5 5 8 8 11 11 12 11 6 8 16 13 4 5 7 21 20 14 8 20 21 19 15 15 10 11 5 5 7
4 5 5 3 1 2 0 1 2 4 4 3 5 6 2 3 5 6 8 9 11 13 15 15 16 17 16 4 11 20 24 25 26 23 23 23 16 15 14 15 13 9 2 2
7 8 5 2 1 1 1 4 4 5 3 2 2 4 1 5 6 6 10 9 10 10 13 13 9 12 13 7 16 19 28 24 26 26 23 23 23 20 19 17 14 15 14 11
6 5 4 3 3 1 1 1 2 4 1 4 3 3 2 8 4 6 6 7 3 9 3 4 6 4 6 6 17 21 26 30 26 18 15 12 11 10 11 13 14 17 21 19
4 3 4 2 2 1 2 2 2 1 1 1 4 6 2 8 7 4 4 3 3 3 3 12 3 8 30 32 32 29 19 29 20 15 9 13 15 14 13 12 15 19 20 22
5 3 3 3 2 0 1 2 1 2 2 5 5 6 2 5 3 2 3 2 1 2 3 2 3 3 7 26 35 43 42 23 15 8 11 16 16 18 19 20 22 25 27 27
4 3 1 2 2 2 3 3 4 4 2 6 3 1 3 2 2 1 1 2 2 4 3 3 3 4 18 24 10 13 28 33 23 13 12 13 16 20 24 28 29 29 32 39
2 2 1 1 2 2 3 2 1 2 4 2 5 2 2 2 1 0 1 3 4 7 2 3 3 18 26 26 27 20 11 6 13 16 18 21 24 28 31 33 38 38 37 38
2 2 4 3 2 3 2 1 2 2 6 9 10 1 4 3 2 1 3 3 4 3 3 5 3 16 22 29 35 35 34 31 27 30 32 35 34 36 39 40 42 42 43 41
2 3 2 2 6 6 7 8 6 9 8 11 10 5 6 3 2 3 2 3 4 4 3 3 18 24 26 30 28 28 31 37 37 38 38 39 38 38 41 40 40 41 42 41
2 3 4 11 7 7 11 11 10 11 10 10 6 4 3 4 3 4 5 3 5 2 4 20 30 37 41 40 40 40 38 37 39 42 43 44 44 43 44 41 41 46 47 46
2 3 6 9 8 7 8 8 8 8 3 1 1 2 3 4 3 3 4 3 4 17 25 29 31 37 41 42 41 43 44 43 41 42 42 44 44 43 42 43 42 42 42 42